Regional Weather Roundup
Issued by NWS Mobile, AL

Home | Current Version | Previous Version | Text Only | Print | Product List | Glossary On
Versions: 1 2 3 4 5 6 7 8 9 10 11 12 13 14 15 16 17 18 19 20 21 22 23 24 25 26 27 28 29 30 31 32 33 34 35 36 37 38 39 40 41 42 43 44 45 46 47 48 49 50
000
ASUS44 KMOB 231017
RWRMOB
REGIONAL WEATHER ROUNDUP
NATIONAL WEATHER SERVICE MOBILE AL
500 AM CDT SAT MAY 23 2015

ALZ061>064-231100-
COASTAL ALABAMA


CITY           SKY/WX    TMP DP  RH WIND       PRES   REMARKS
MOBILE REG APT CLEAR     65  58  78 CALM      30.20R
BROOKLEY FIELD MOCLDY    68  58  70 N5        30.21R
GULF SHORES    SUNNY     65  59  79 CALM      30.18R

$$

ALZ051>060-231100-
INTERIOR SOUTHWEST AND SOUTH CENTRAL ALABAMA


CITY           SKY/WX    TMP DP  RH WIND       PRES   REMARKS
ANDALUSIA/OPP  CLEAR     62  55  77 CALM      30.21R
EVERGREEN      CLEAR     57  55  93 CALM      30.22R
FLORALA        SUNNY     58  55  90 CALM      30.22R
GREENVILLE     FAIR      57  53  86 CALM      30.22R

$$

FLZ001>006-231100-
WESTERN FLORIDA PANHANDLE


CITY           SKY/WX    TMP DP  RH WIND       PRES   REMARKS
CRESTVIEW      CLEAR     58  56  93 CALM      30.21R
DESTIN         CLEAR     72  59  63 NE6       30.18S
DUKE FIELD     FAIR      62  58  87 CALM      30.18
MARY ESTHER    CLEAR     66  54  63 CALM      30.17S
MILTON           N/A    N/A N/A N/A MISG      30.20R
PENSACOLA      CLEAR     68  58  70 E3        30.18S
NAS PENSACOLA  CLEAR     69  60  73 NE5       30.18R
VALPARAISO     CLEAR     67  55  64 N3        30.18S

$$

...MARINE OBSERVATIONS...

STATION/POSITION TIME  SKY/WX   TEMP    WIND        PRES    VSBY
                                AIR SEA DIR/SP/G
                 (UTC)          (F)     (DEG/KT/KT) (MB)    (MI)
PASCAGOULA       0900            70      60/  6/  8 1021.3R
PETIT BOIS ISL   0900            76      70/ 13/ 16 1021.7R
E DAUPHIN ISLAND 1000            75      70/ 12/ 14 1021.8R
MIDDLE BAY LIGHT 0900            73      90/ 16     1021.0R
USCG MOBILE BAY  0900            70 79   20/  3/  4 1021.0R
STATE DOCKS      0900            70 78              1021.9R
MEAHER PARK      1000            70     120/  3     1022.4R
FORT MORGAN      0900            73      90/ 10/ 12 1021.0R
12 S ORANGE BCH  0950            78 80   80/ 14/ 16 1020.9R
WVE H/P(F/S)=  2/ 4

PENSACOLA BAY    0900            73 82   40/  4/  8 1022.1R
64 S DAUPHIN ISL 0950            78 80   70/ 12/ 14 1021.6R
WVE H/P(F/S)=  1/ 4

67 S FORT MORGAN 0930            78      90/ 10     1021.0R
115 SE PENSACOLA 0950            78 81   60/  6/  8 1021.3R
WVE H/P(F/S)=  1/ 3

MID GULF/42001   0950            81 82  110/  8/ 10 1020.2R
WVE H/P(F/S)=  2/ 4

EAST GULF/42003  0950            81 82   90/ 10/ 12 1019.7R
WVE H/P(F/S)=  1/ 2


$$

...NEARBY LOCATIONS

CITY           SKY/WX    TMP DP  RH WIND       PRES   REMARKS
GULFPORT       CLEAR     68  60  75 NE3       30.18R
BILOXI         CLEAR     67  61  82 NE6       30.18R
PASCAGOULA     CLEAR     63  59  87 CALM      30.19R
HATTIESBURG    CLEAR     62  59  90 CALM      30.22R
LAUREL         CLEAR     59  54  82 NE5       30.22R
MERIDIAN       CLEAR     54  53  97 NW3       30.24R
MERIDIAN NAS   CLEAR     55  52  89 CALM      30.24R
MONTGOMERY     CLEAR     61  56  83 N3        30.24R
MAXWELL AFB    CLEAR     59  57  92 N2        30.23R
TROY           CLEAR     54  53  97 CALM      30.24R
FORT RUCKER    CLEAR     61  55  81 NE3       30.21R
DALEVILLE      CLEAR     60  56  86 NE8       30.22R
DOTHAN         CLEAR     64  58  80 E7        30.26R

$$

...OTHER SURROUNDING LOCATIONS...

CITY           SKY/WX    TMP DP  RH WIND       PRES   REMARKS
BIRMINGHAM     CLEAR     61  48  62 E3        30.28R
TUSCALOOSA     CLEAR     54  52  93 N3        30.25R
COLUMBUS GA    CLEAR     63  53  70 E5        30.27R
PANAMA CITY    NOT AVBL
TALLAHASSEE    CLEAR     70  65  84 E8        30.21R
BATON ROUGE    CLEAR     68  66  93 NE3       30.17R
NEW ORLEANS    PTCLDY    72  67  84 CALM      30.16R
SLIDELL        CLEAR     67  64  90 NE5       30.18R
JACKSON        CLEAR     60  56  86 CALM      30.21R
MCCOMB         CLEAR     64  60  87 NE3       30.20R

$$

...SURROUNDING MARINE OBSERVATIONS...

STATION/POSITION TIME  SKY/WX   TEMP    WIND        PRES    VSBY
                                AIR SEA DIR/SP/G
                 (UTC)          (F)     (DEG/KT/KT) (MB)    (MI)
WAVELAND         0900            72 77   80/  8/ 10 1021.5R
PASCAGOULA RGN A 0900            70      60/  8/ 10 1021.0R
PASCAGOULA PORT  0900               80                N/A
GRAND ISLE       0900            78 81  100/  7/ 13 1020.6R
SOUTHWEST PASS   1000            79      90/ 11/ 12 1021.1R
PILOT STATION E  0900            78 74   90/ 11/ 12 1021.2R
SHELL BEACH      0900            77 82  100/  7/ 10 1020.5R
PANAMA CITY      0900            70 82   40/  6/  7 1021.1R
APALACHICOLA     0900            69 81   30/  6/  8 1020.9R
TYNDALL TOWER C  1000            77      90/ 14/ 16 1021.4R
S APLCHCLA/42036 0950            80 80   70/ 16/ 17 1020.5R
WVE H/P(F/S)=  2/ 4


$$



USA.gov is the U.S. government's official web portal to all federal, state and local government web resources and services.